Location: Del Amo
(33.8464°N, 118.2104°W)
Time: 07:04:52
(UTC+00:00)

Vanguard 3 - Pass Details

Date: 21 September 2024
Orbit: 507 x 3223 km, 33.3° (Epoch: 09 October)

Event Time Altitude Azimuth Distance (km) Brightness Sun altitude
Rises 19:32:53 0° 287° (WNW) 7,146 11.8 56.3°
Reaches altitude 10° 19:38:25 10° 281° (W) 5,980 11.6 56.4°
Maximum altitude 19:53:52 38° 222° (SW) 3,294 11.4 56.4°
Drops below altitude 10° 20:04:16 10° 159° (SSE) 4,033 11.3 56.1°
Sets 20:07:14 0° 150° (SSE) 4,683 11.4 56.0°
